Time,TemperatureF,DewpointF,PressureIn,WindDirection,WindDirectionDegrees,WindSpeedMPH,WindSpeedGustMPH,Humidity,HourlyPrecipIn,Conditions,Clouds,dailyrainin,SoftwareType,DateUTC
2013-01-12 00:03:00,34.0,33.0,29.73,ENE,65,0.0,-999.0,97,-99.99,,,-99.99,,2013-01-12 05:03:00,
2013-01-12 00:12:00,34.0,33.0,29.73,ENE,65,0.0,-999.0,97,-99.99,,,-99.99,,2013-01-12 05:12:00,
2013-01-12 00:22:00,35.0,34.0,29.73,ENE,65,0.0,-999.0,97,-99.99,,,-99.99,,2013-01-12 05:22:00,
2013-01-12 00:32:00,35.0,34.0,29.72,ENE,65,0.0,-999.0,97,-99.99,,,-99.99,,2013-01-12 05:32:00,
2013-01-12 00:42:00,35.0,34.0,29.72,ENE,65,0.0,-999.0,97,-99.99,,,-99.99,,2013-01-12 05:42:00,
2013-01-12 00:53:00,35.0,34.0,29.72,ENE,65,0.0,-999.0,97,-99.99,,,-99.99,,2013-01-12 05:53:00,
2013-01-12 01:02:00,35.0,34.0,29.71,ENE,65,0.0,-999.0,97,-99.99,,,-99.99,,2013-01-12 06:02:00,
2013-01-12 01:12:00,35.0,34.0,29.71,ENE,65,0.0,-999.0,97,-99.99,,,-99.99,,2013-01-12 06:12:00,
2013-01-12 01:22:00,35.0,34.0,29.71,ENE,65,0.0,-999.0,97,-99.99,,,-99.99,,2013-01-12 06:22:00,
2013-01-12 01:33:00,35.0,34.0,29.72,WNW,300,1.0,-999.0,97,-99.99,,,-99.99,,2013-01-12 06:33:00,
2013-01-12 01:43:00,35.0,34.0,29.72,WNW,300,1.0,-999.0,97,-99.99,,,-99.99,,2013-01-12 06:43:00,
2013-01-12 01:53:00,35.0,34.0,29.72,WNW,300,0.0,-999.0,97,-99.99,,,-99.99,,2013-01-12 06:53:00,
2013-01-12 02:02:00,34.0,33.0,29.72,WNW,300,0.0,-999.0,97,-99.99,,,-99.99,,2013-01-12 07:02:00,
2013-01-12 02:12:00,35.0,34.0,29.72,WNW,300,0.0,-999.0,97,-99.99,,,-99.99,,2013-01-12 07:12:00,
2013-01-12 02:22:00,35.0,34.0,29.72,WNW,300,0.0,-999.0,97,-99.99,,,-99.99,,2013-01-12 07:22:00,
2013-01-12 02:32:00,35.0,34.0,29.71,WNW,300,0.0,-999.0,97,-99.99,,,-99.99,,2013-01-12 07:32:00,
2013-01-12 02:42:00,35.0,34.0,29.71,WNW,300,0.0,-999.0,97,-99.99,,,-99.99,,2013-01-12 07:42:00,
2013-01-12 02:53:00,35.0,34.0,29.71,WNW,300,0.0,-999.0,97,-99.99,,,-99.99,,2013-01-12 07:53:00,
2013-01-12 03:02:00,34.0,33.0,29.72,WNW,300,0.0,-999.0,97,-99.99,,,-99.99,,2013-01-12 08:02:00,
2013-01-12 03:12:00,34.0,33.0,29.72,WNW,300,0.0,-999.0,97,-99.99,,,-99.99,,2013-01-12 08:12:00,
2013-01-12 03:22:00,34.0,33.0,29.72,WNW,300,0.0,-999.0,97,-99.99,,,-99.99,,2013-01-12 08:22:00,
2013-01-12 03:32:00,35.0,34.0,29.72,WNW,300,0.0,-999.0,97,-99.99,,,-99.99,,2013-01-12 08:32:00,
2013-01-12 03:42:00,35.0,34.0,29.72,WNW,300,0.0,-999.0,97,-99.99,,,-99.99,,2013-01-12 08:42:00,
2013-01-12 03:53:00,35.0,34.0,29.71,WNW,300,0.0,-999.0,97,-99.99,,,-99.99,,2013-01-12 08:53:00,
2013-01-12 04:02:00,35.0,34.0,29.71,WNW,300,0.0,-999.0,97,-99.99,,,-99.99,,2013-01-12 09:02:00,
2013-01-12 04:12:00,35.0,34.0,29.71,WNW,300,0.0,-999.0,97,-99.99,,,-99.99,,2013-01-12 09:12:00,
2013-01-12 04:22:00,35.0,34.0,29.70,WNW,300,0.0,-999.0,98,-99.99,,,-99.99,,2013-01-12 09:22:00,
2013-01-12 04:32:00,35.0,34.0,29.70,WNW,300,0.0,-999.0,97,-99.99,,,-99.99,,2013-01-12 09:32:00,
2013-01-12 04:42:00,35.0,34.0,29.70,WNW,300,0.0,-999.0,97,-99.99,,,-99.99,,2013-01-12 09:42:00,
2013-01-12 04:53:00,35.0,34.0,29.70,WNW,300,0.0,-999.0,97,-99.99,,,-99.99,,2013-01-12 09:53:00,
2013-01-12 05:02:00,35.0,34.0,29.70,WNW,300,0.0,-999.0,98,-99.99,,,-99.99,,2013-01-12 10:02:00,
2013-01-12 05:12:00,35.0,34.0,29.70,WNW,300,0.0,-999.0,98,-99.99,,,-99.99,,2013-01-12 10:12:00,
2013-01-12 05:22:00,35.0,34.0,29.69,WNW,300,0.0,-999.0,98,-99.99,,,-99.99,,2013-01-12 10:22:00,
2013-01-12 05:32:00,34.0,34.0,29.71,WNW,300,0.0,-999.0,98,-99.99,,,-99.99,,2013-01-12 10:32:00,
2013-01-12 05:42:00,34.0,34.0,29.71,WNW,300,0.0,-999.0,98,-99.99,,,-99.99,,2013-01-12 10:42:00,
2013-01-12 05:52:00,35.0,34.0,29.71,WNW,300,0.0,-999.0,98,-99.99,,,-99.99,,2013-01-12 10:52:00,
2013-01-12 06:02:00,35.0,34.0,29.72,WNW,300,0.0,-999.0,98,-99.99,,,-99.99,,2013-01-12 11:02:00,
2013-01-12 06:12:00,35.0,34.0,29.72,WNW,300,0.0,-999.0,98,-99.99,,,-99.99,,2013-01-12 11:12:00,
2013-01-12 06:22:00,35.0,34.0,29.72,WNW,300,0.0,-999.0,98,-99.99,,,-99.99,,2013-01-12 11:22:00,
2013-01-12 06:32:00,35.0,34.0,29.72,WNW,300,0.0,-999.0,98,-99.99,,,-99.99,,2013-01-12 11:32:00,
2013-01-12 06:42:00,35.0,34.0,29.72,WNW,300,0.0,-999.0,98,-99.99,,,-99.99,,2013-01-12 11:42:00,
2013-01-12 06:53:00,34.0,34.0,29.71,WNW,300,0.0,-999.0,98,-99.99,,,-99.99,,2013-01-12 11:53:00,
2013-01-12 07:03:00,34.0,34.0,29.72,WNW,300,0.0,-999.0,98,-99.99,,,-99.99,,2013-01-12 12:03:00,
2013-01-12 07:12:00,34.0,34.0,29.72,WNW,300,0.0,-999.0,98,-99.99,,,-99.99,,2013-01-12 12:12:00,
2013-01-12 07:22:00,34.0,34.0,29.72,WNW,300,0.0,-999.0,98,-99.99,,,-99.99,,2013-01-12 12:22:00,
2013-01-12 07:32:00,35.0,34.0,29.73,WNW,295,0.0,-999.0,98,-99.99,,,-99.99,,2013-01-12 12:32:00,
2013-01-12 07:43:00,35.0,34.0,29.73,WNW,295,0.0,-999.0,98,-99.99,,,-99.99,,2013-01-12 12:43:00,
2013-01-12 07:53:00,35.0,34.0,29.73,WNW,295,0.0,-999.0,98,-99.99,,,-99.99,,2013-01-12 12:53:00,
2013-01-12 08:02:00,35.0,34.0,29.74,WNW,295,0.0,-999.0,98,-99.99,,,-99.99,,2013-01-12 13:02:00,
2013-01-12 08:12:00,35.0,34.0,29.74,WNW,295,0.0,-999.0,98,-99.99,,,-99.99,,2013-01-12 13:12:00,
2013-01-12 08:23:00,35.0,34.0,29.74,WNW,295,0.0,-999.0,98,-99.99,,,-99.99,,2013-01-12 13:23:00,
2013-01-12 08:33:00,35.0,34.0,29.75,WNW,295,0.0,-999.0,98,-99.99,,,-99.99,,2013-01-12 13:33:00,
2013-01-12 08:43:00,35.0,34.0,29.75,WNW,295,0.0,-999.0,98,-99.99,,,-99.99,,2013-01-12 13:43:00,
2013-01-12 08:53:00,36.0,35.0,29.74,NE,51,0.0,-999.0,98,-99.99,,,-99.99,,2013-01-12 13:53:00,
2013-01-12 09:02:00,36.0,35.0,29.74,NE,51,1.0,-999.0,98,-99.99,,,-99.99,,2013-01-12 14:02:00,
2013-01-12 09:12:00,36.0,35.0,29.74,NE,51,1.0,-999.0,98,-99.99,,,-99.99,,2013-01-12 14:12:00,
2013-01-12 09:22:00,37.0,36.0,29.74,NE,51,0.0,-999.0,98,-99.99,,,-99.99,,2013-01-12 14:22:00,
2013-01-12 09:33:00,37.0,36.0,29.74,NE,55,0.0,-999.0,98,-99.99,,,-99.99,,2013-01-12 14:33:00,
2013-01-12 09:43:00,37.0,36.0,29.74,NE,55,0.0,-999.0,98,-99.99,,,-99.99,,2013-01-12 14:43:00,
2013-01-12 09:53:00,38.0,37.0,29.74,NE,55,0.0,-999.0,98,-99.99,,,-99.99,,2013-01-12 14:53:00,
2013-01-12 10:03:00,38.0,37.0,29.74,NE,55,0.0,-999.0,98,-99.99,,,-99.99,,2013-01-12 15:03:00,
2013-01-12 10:13:00,38.0,37.0,29.74,NE,55,0.0,-999.0,98,-99.99,,,-99.99,,2013-01-12 15:13:00,
2013-01-12 10:23:00,38.0,37.0,29.75,NE,55,0.0,-999.0,98,-99.99,,,-99.99,,2013-01-12 15:23:00,
2013-01-12 10:33:00,38.0,37.0,29.75,NE,55,0.0,-999.0,98,-99.99,,,-99.99,,2013-01-12 15:33:00,
2013-01-12 10:43:00,38.0,37.0,29.75,NE,55,0.0,-999.0,98,-99.99,,,-99.99,,2013-01-12 15:43:00,
2013-01-12 10:53:00,38.0,37.0,29.75,NE,55,0.0,-999.0,98,-99.99,,,-99.99,,2013-01-12 15:53:00,
2013-01-12 11:03:00,38.0,37.0,29.73,NE,55,0.0,-999.0,98,-99.99,,,-99.99,,2013-01-12 16:03:00,
2013-01-12 11:12:00,38.0,37.0,29.73,NE,55,0.0,-999.0,98,-99.99,,,-99.99,,2013-01-12 16:12:00,
2013-01-12 11:23:00,39.0,38.0,29.73,NE,55,0.0,-999.0,98,-99.99,,,-99.99,,2013-01-12 16:23:00,
2013-01-12 11:33:00,39.0,38.0,29.73,NE,55,0.0,-999.0,98,-99.99,,,-99.99,,2013-01-12 16:33:00,
2013-01-12 11:43:00,39.0,38.0,29.73,NE,55,0.0,-999.0,98,-99.99,,,-99.99,,2013-01-12 16:43:00,
2013-01-12 11:53:00,39.0,38.0,29.73,NE,55,0.0,-999.0,98,-99.99,,,-99.99,,2013-01-12 16:53:00,
2013-01-12 12:02:00,39.0,38.0,29.72,NE,55,0.0,-999.0,98,-99.99,,,-99.99,,2013-01-12 17:02:00,
2013-01-12 12:12:00,39.0,38.0,29.72,NE,55,0.0,-999.0,98,-99.99,,,-99.99,,2013-01-12 17:12:00,
2013-01-12 12:23:00,40.0,39.0,29.72,NE,55,0.0,-999.0,98,-99.99,,,-99.99,,2013-01-12 17:23:00,
2013-01-12 12:33:00,40.0,39.0,29.72,NE,55,0.0,-999.0,98,-99.99,,,-99.99,,2013-01-12 17:33:00,
2013-01-12 12:43:00,40.0,39.0,29.72,NE,55,0.0,-999.0,98,-99.99,,,-99.99,,2013-01-12 17:43:00,
2013-01-12 12:53:00,42.0,41.0,29.72,South,171,0.0,-999.0,98,-99.99,,,-99.99,,2013-01-12 17:53:00,
2013-01-12 13:03:00,42.0,41.0,29.72,South,171,0.0,-999.0,98,-99.99,,,-99.99,,2013-01-12 18:03:00,
2013-01-12 13:12:00,42.0,41.0,29.72,South,171,0.0,-999.0,98,-99.99,,,-99.99,,2013-01-12 18:12:00,
2013-01-12 13:23:00,42.0,41.0,29.72,SW,222,1.0,-999.0,98,-99.99,,,-99.99,,2013-01-12 18:23:00,
2013-01-12 13:33:00,42.0,41.0,29.72,SSW,193,1.0,-999.0,98,-99.99,,,-99.99,,2013-01-12 18:33:00,
2013-01-12 13:43:00,42.0,41.0,29.72,SSW,193,1.0,-999.0,98,-99.99,,,-99.99,,2013-01-12 18:43:00,
2013-01-12 13:53:00,42.0,41.0,29.74,SW,214,0.0,-999.0,98,-99.99,,,-99.99,,2013-01-12 18:53:00,
2013-01-12 14:03:00,42.0,41.0,29.74,SW,215,1.0,-999.0,98,-99.99,,,-99.99,,2013-01-12 19:03:00,
2013-01-12 14:12:00,42.0,41.0,29.74,SW,215,1.0,-999.0,98,-99.99,,,-99.99,,2013-01-12 19:12:00,
2013-01-12 14:23:00,42.0,41.0,29.73,SW,215,1.0,-999.0,98,-99.99,,,-99.99,,2013-01-12 19:23:00,
2013-01-12 14:33:00,42.0,41.0,29.73,SSW,209,1.0,-999.0,98,-99.99,,,-99.99,,2013-01-12 19:33:00,
2013-01-12 14:43:00,42.0,41.0,29.73,SSW,209,1.0,-999.0,98,-99.99,,,-99.99,,2013-01-12 19:43:00,
2013-01-12 14:53:00,42.0,41.0,29.73,SSW,207,1.0,-999.0,97,-99.99,,,-99.99,,2013-01-12 19:53:00,
2013-01-12 15:03:00,42.0,41.0,29.73,SSW,207,1.0,-999.0,97,-99.99,,,-99.99,,2013-01-12 20:03:00,
2013-01-12 15:12:00,42.0,41.0,29.73,SW,219,0.0,-999.0,97,-99.99,,,-99.99,,2013-01-12 20:12:00,
2013-01-12 15:22:00,42.0,41.0,29.73,SW,219,0.0,-999.0,97,-99.99,,,-99.99,,2013-01-12 20:22:00,
2013-01-12 15:33:00,42.0,41.0,29.73,WSW,237,0.0,-999.0,97,-99.99,,,-99.99,,2013-01-12 20:33:00,
2013-01-12 15:42:00,42.0,41.0,29.73,WSW,237,0.0,-999.0,97,-99.99,,,-99.99,,2013-01-12 20:42:00,
2013-01-12 15:53:00,42.0,41.0,29.72,SSW,211,0.0,-999.0,97,-99.99,,,-99.99,,2013-01-12 20:53:00,
2013-01-12 16:03:00,42.0,41.0,29.72,SSE,159,0.0,-999.0,97,-99.99,,,-99.99,,2013-01-12 21:03:00,
2013-01-12 16:12:00,42.0,41.0,29.73,SW,215,1.0,-999.0,97,-99.99,,,-99.99,,2013-01-12 21:12:00,
2013-01-12 16:22:00,42.0,41.0,29.73,SW,215,1.0,-999.0,97,-99.99,,,-99.99,,2013-01-12 21:22:00,
2013-01-12 16:33:00,42.0,41.0,29.73,SW,215,1.0,-999.0,97,-99.99,,,-99.99,,2013-01-12 21:33:00,
2013-01-12 16:43:00,42.0,41.0,29.73,SW,215,1.0,-999.0,97,-99.99,,,-99.99,,2013-01-12 21:43:00,
2013-01-12 16:53:00,41.0,40.0,29.74,South,180,0.0,-999.0,97,-99.99,,,-99.99,,2013-01-12 21:53:00,
2013-01-12 17:03:00,41.0,40.0,29.76,South,180,0.0,-999.0,97,-99.99,,,-99.99,,2013-01-12 22:03:00,
2013-01-12 17:12:00,41.0,40.0,29.76,South,180,0.0,-999.0,97,-99.99,,,-99.99,,2013-01-12 22:12:00,
2013-01-12 17:23:00,40.0,39.0,29.75,South,180,0.0,-999.0,97,-99.99,,,-99.99,,2013-01-12 22:23:00,
2013-01-12 17:33:00,40.0,39.0,29.75,SSW,200,1.0,-999.0,97,-99.99,,,-99.99,,2013-01-12 22:33:00,
2013-01-12 17:43:00,40.0,39.0,29.75,SSW,200,1.0,-999.0,97,-99.99,,,-99.99,,2013-01-12 22:43:00,
2013-01-12 17:53:00,40.0,39.0,29.73,SE,132,2.0,-999.0,97,-99.99,,,-99.99,,2013-01-12 22:53:00,
2013-01-12 18:03:00,41.0,40.0,29.73,SE,134,2.0,-999.0,98,-99.99,,,-99.99,,2013-01-12 23:03:00,
2013-01-12 18:13:00,41.0,40.0,29.73,South,172,1.0,-999.0,98,-99.99,,,-99.99,,2013-01-12 23:13:00,
2013-01-12 18:23:00,41.0,40.0,29.73,South,172,1.0,-999.0,98,-99.99,,,-99.99,,2013-01-12 23:23:00,
2013-01-12 18:33:00,41.0,40.0,29.73,South,172,1.0,-999.0,98,-99.99,,,-99.99,,2013-01-12 23:33:00,
2013-01-12 18:43:00,41.0,40.0,29.73,South,172,1.0,-999.0,98,-99.99,,,-99.99,,2013-01-12 23:43:00,
2013-01-12 18:53:00,40.0,39.0,29.72,SSE,163,1.0,-999.0,98,-99.99,,,-99.99,,2013-01-12 23:53:00,
2013-01-12 19:03:00,40.0,39.0,29.74,SSW,192,1.0,-999.0,98,-99.99,,,-99.99,,2013-01-13 00:03:00,
2013-01-12 19:12:00,40.0,39.0,29.74,SSW,192,1.0,-999.0,98,-99.99,,,-99.99,,2013-01-13 00:12:00,
2013-01-12 19:23:00,40.0,39.0,29.73,SSW,201,0.0,-999.0,98,-99.99,,,-99.99,,2013-01-13 00:23:00,
2013-01-12 19:33:00,40.0,39.0,29.72,South,179,2.0,-999.0,98,-99.99,,,-99.99,,2013-01-13 00:33:00,
2013-01-12 19:43:00,40.0,39.0,29.72,South,179,2.0,-999.0,98,-99.99,,,-99.99,,2013-01-13 00:43:00,
2013-01-12 19:53:00,40.0,39.0,29.73,SSW,200,1.0,-999.0,98,-99.99,,,-99.99,,2013-01-13 00:53:00,
2013-01-12 20:03:00,40.0,39.0,29.74,SW,227,1.0,-999.0,98,-99.99,,,-99.99,,2013-01-13 01:03:00,
2013-01-12 20:12:00,40.0,39.0,29.74,SW,227,1.0,-999.0,98,-99.99,,,-99.99,,2013-01-13 01:12:00,
2013-01-12 20:23:00,40.0,39.0,29.73,SE,144,0.0,-999.0,98,-99.99,,,-99.99,,2013-01-13 01:23:00,
2013-01-12 20:33:00,40.0,39.0,29.72,SE,129,1.0,-999.0,98,-99.99,,,-99.99,,2013-01-13 01:33:00,
2013-01-12 20:43:00,40.0,39.0,29.72,SE,129,1.0,-999.0,98,-99.99,,,-99.99,,2013-01-13 01:43:00,
2013-01-12 20:53:00,40.0,39.0,29.72,South,188,1.0,-999.0,98,-99.99,,,-99.99,,2013-01-13 01:53:00,
2013-01-12 21:02:00,39.0,38.0,29.72,South,188,0.0,-999.0,98,-99.99,,,-99.99,,2013-01-13 02:02:00,
2013-01-12 21:13:00,39.0,38.0,29.72,South,188,0.0,-999.0,98,-99.99,,,-99.99,,2013-01-13 02:13:00,
2013-01-12 21:23:00,39.0,38.0,29.72,SSW,193,1.0,-999.0,98,-99.99,,,-99.99,,2013-01-13 02:23:00,
2013-01-12 21:33:00,39.0,38.0,29.72,SSE,167,0.0,-999.0,98,-99.99,,,-99.99,,2013-01-13 02:33:00,
2013-01-12 21:43:00,39.0,38.0,29.72,SSE,167,0.0,-999.0,98,-99.99,,,-99.99,,2013-01-13 02:43:00,
2013-01-12 21:53:00,39.0,38.0,29.72,SSE,167,0.0,-999.0,98,-99.99,,,-99.99,,2013-01-13 02:53:00,
2013-01-12 22:02:00,39.0,38.0,29.71,South,190,0.0,-999.0,98,-99.99,,,-99.99,,2013-01-13 03:02:00,
2013-01-12 22:12:00,39.0,38.0,29.71,South,190,0.0,-999.0,98,-99.99,,,-99.99,,2013-01-13 03:12:00,
2013-01-12 22:22:00,39.0,38.0,29.71,SSE,155,0.0,-999.0,98,-99.99,,,-99.99,,2013-01-13 03:22:00,
2013-01-12 22:33:00,40.0,39.0,29.71,SW,215,1.0,-999.0,98,-99.99,,,-99.99,,2013-01-13 03:33:00,
2013-01-12 22:43:00,40.0,39.0,29.71,SW,215,1.0,-999.0,98,-99.99,,,-99.99,,2013-01-13 03:43:00,
2013-01-12 22:53:00,40.0,39.0,29.71,SSW,211,1.0,-999.0,98,-99.99,,,-99.99,,2013-01-13 03:53:00,
2013-01-12 23:02:00,40.0,39.0,29.72,SSW,202,1.0,-999.0,98,-99.99,,,-99.99,,2013-01-13 04:02:00,
2013-01-12 23:12:00,40.0,39.0,29.72,SSW,202,1.0,-999.0,98,-99.99,,,-99.99,,2013-01-13 04:12:00,
2013-01-12 23:22:00,40.0,39.0,29.72,SSW,202,0.0,-999.0,98,-99.99,,,-99.99,,2013-01-13 04:22:00,
2013-01-12 23:33:00,40.0,39.0,29.72,SSW,202,0.0,-999.0,98,-99.99,,,-99.99,,2013-01-13 04:33:00,
2013-01-12 23:43:00,40.0,39.0,29.72,SSW,202,0.0,-999.0,98,-99.99,,,-99.99,,2013-01-13 04:43:00,
2013-01-12 23:53:00,39.0,38.0,29.73,SSW,202,0.0,-999.0,98,-99.99,,,-99.99,,2013-01-13 04:53:00,